Regional Weather Roundup
Issued by NWS Cleveland, OH

Home | Current Version | Previous Version | Graphics & Text | Print | Product List | Glossary On
Versions: 1 2 3 4 5 6 7 8 9 10 11 12 13 14 15 16 17 18 19 20 21 22 23 24 25 26 27 28 29 30 31 32 33 34 35 36 37 38 39 40 41 42 43 44 45 46 47 48 49 50
977
ASUS41 KCLE 180100
RWRCLE
OHIO REGIONAL WEATHER ROUNDUP
NATIONAL WEATHER SERVICE WILMINGTON, OH
900 PM EDT TUE OCT 17 2017

NOTE: "FAIR" INDICATES FEW OR NO CLOUDS BELOW 12,000 FEET WITH NO
SIGNIFICANT WEATHER AND/OR OBSTRUCTIONS TO VISIBILITY.

OHZ001>008-015>018-024>027-034-035-043-044-180200-
   NORTHWEST OHIO

CITY           SKY/WX    TMP DP  RH WIND       PRES   REMARKS
DEFIANCE       FAIR      52  40  63 S7        30.21R
FINDLAY        FAIR      49  39  68 S10       30.21S
TOLEDO EXPRESS FAIR      57  43  59 SW6       30.20R
TOLEDO EXEC    FAIR      56  41  57 SW7       30.21R
LIMA           FAIR      55  39  54 S7        30.23R
$$

OHZ009>014-019>023-028>033-038-089-180200-
   NORTHEAST OHIO

CITY           SKY/WX    TMP DP  RH WIND       PRES   REMARKS
CLE-HOPKINS    FAIR      58  39  49 S9        30.24R
CLE-LAKEFRONT  FAIR      61  37  41 S13       30.20R
CUY CO. ARPT   CLEAR     59  39  47 S8        30.22R
LORAIN-ELYRIA  FAIR      53  36  52 SW7       30.23R
ASHTABULA      FAIR      55  39  54 S6        30.23R
AKRON-CANTON   FAIR      52  39  61 SW8       30.24S
WOOSTER        NOT AVBL
MANSFIELD      FAIR      50  39  66 S8        30.24R
YOUNGSTOWN     FAIR      53  39  59 S7        30.24R
$$

OHZ042-051>053-060>062-070>072-077>081-180200-
  SOUTHWEST OHIO

CITY           SKY/WX    TMP DP  RH WIND       PRES   REMARKS
CINC-COVINGTON FAIR      52  44  74 S6        30.27S
CINC-LUNKEN    FAIR      49  46  90 CALM      30.29R
HAMILTON       FAIR      47  43  86 CALM      30.28R
DAYTON         NOT AVBL
WRIGHT-PAT AFB NOT AVBL
DAYTON GENERAL FAIR      56  40  55 S5        30.26R
WILMINGTON     FAIR      49  42  77 CALM      30.27S
$$

OHZ036-037-039>041-045>050-054>059-063>069-073>076-082>088-180200-
  CENTRAL AND SOUTHEAST OHIO

CITY           SKY/WX    TMP DP  RH WIND       PRES   REMARKS
COLUMBUS       FAIR      57  41  55 S5        30.26R
OSU AIRPORT    FAIR      55  40  56 S5        30.25S
BOLTON FIELD   NOT AVBL
RICKENBACK AFB NOT AVBL
NEWARK         FAIR      50  42  74 CALM      30.26S
MARION         FAIR      53  37  54 SW8       30.25R
LANCASTER      FAIR      47  41  80 CALM      30.27S
ZANESVILLE     FAIR      54  40  59 S5        30.27S
NEW PHILLY     FAIR      49  42  77 CALM      30.26S
$$




USA.gov is the U.S. government's official web portal to all federal, state and local government web resources and services.